Regional Weather Roundup
Issued by NWS

Home | Current Version | Previous Version | Text Only | Print | Product List | Glossary On
Versions: 1 2 3 4 5 6 7 8 9 10 11 12 13 14 15 16 17 18 19 20 21 22 23 24 25 26 27
000
ASUS42 KKEY 232310
RWRKEY

FLORIDA REGIONAL WEATHER ROUNDUP FOR THE FLORIDA KEYS
NATIONAL WEATHER SERVICE KEY WEST FLORIDA
700 PM EDT SAT JUL 23 2016

...SOUTH FLORIDA AND THE KEYS...

CITY           SKY/WX    TMP DP  RH WIND       PRES   REMARKS
FORT MYERS     MOSUNNY   82  74  76 SE3       30.00R
SW REGIONAL AP CLOUDY    81  69  67 CALM      30.01R
NAPLES         CLOUDY    86  74  67 W8        29.99F HX  94
MIAMI          LGT RAIN  83  75  77 E6        30.00S HX  90
WEST KENDALL   CLOUDY    82  76  81 CALM      30.00S
HOMESTEAD      CLOUDY    83  76  78 SE3       29.99F HX  91
MARATHON       CLOUDY    85  77  77 SE5       30.00R HX  95
BOCA CHICA NAS PTSUNNY   86  76  71 S6        30.01R HX  96
KEY WEST INTL  PTSUNNY   86  77  74 S6        30.01R HX  97

...INTERNATIONAL WEATHER...

CITY           SKY/WX    TMP DP  RH WIND       PRES   REMARKS
NASSAU BAHAMAS MOSUNNY   86  73  66 E6        30.01S HX  93
CANCUN MEXICO  PTSUNNY   86  77  74 E10       29.96F HX  97
COZUMEL MEXICO MOSUNNY   86  75  70 E10       29.95F HX  95

ADJACENT COASTAL WATERS...

STATION/POSITION TIME  SKY/WX   TEMP    WIND        PRES    WAVE
                                AIR SEA DIR/SP/G            HT/PER
                 (UTC)          (F)     (DEG/KT/KT) (MB)    (FT/S)
PULASKI SHOAL LI 2300            85     120/  4/  5 1016.3R
SAND KEY         2250            84     180/  4/  6 1016.6R
LONG KEY         2300            85 88  130/  6/  7 1016.3R
FOWEY ROCKS      2300            83 85   90/  7/  8 1016.3F

$$




USA.gov is the U.S. government's official web portal to all federal, state and local government web resources and services.